Weather History for TGPY - September, 2013

Change the Weather History Date:

Thursday, September 19, 2013

  Actual Average Record
Temperature  
Mean Temperature 84 °F -  
Max Temperature 88 °F 85 °F 91 °F (2005)
Min Temperature 79 °F 76 °F 73 °F (2014)
Cooling Degree Days 18    
Growing Degree Days 34 (Base 50)    
Moisture  
Dew Point 79 °F    
Average Humidity 80    
Maximum Humidity 89    
Minimum Humidity 72    
Precipitation  
Precipitation 0.00 in - - ()
Sea Level Pressure  
Sea Level Pressure 29.93 in    
Wind  
Wind Speed 11 mph ()    
Max Wind Speed 17 mph    
Max Gust Speed -    
Visibility 8.1 miles    
Events      
Averages and records for this station are not official NWS values.
T = Trace of Precipitation, MM = Missing Value Source: Averaged Metar Reports

Daily Weather History Graph

Daily Weather History Graph

Search for Another Location

Airport or City:

Trip Planner

Search our weather history database for the weather conditions in past years. The results will help you decide how hot, cold, wet, or windy it might be!

Date:

Astronomy

Sep. 19, 2013 Rise Set
Actual Time 5:56 AM AST 6:05 PM AST
Civil Twilight 5:35 AM AST 6:26 PM AST
Nautical Twilight 5:10 AM AST 6:50 PM AST
Astronomical Twilight 4:46 AM AST 7:15 PM AST
Moon 6:14 PM AST (9/19) 5:52 AM AST (9/19)
Length of Visible Light 12h 51m
Length of Day
12h 08m
Full, 100% of the Moon is Illuminated
Sep 19
Full
Sep 26
Last Quarter
Oct 4
New
Oct 11
First Quarter
Oct 18
Full

Hourly Weather History & Observations

Time (AST) Temp. Heat Index Dew Point Humidity Pressure Visibility Wind Dir Wind Speed Gust Speed Precip Events Conditions
12:00 AM 82.4 °F 92.4 °F 78.8 °F 89% 29.95 in 6.2 mi ESE 8.1 mph - N/A   Scattered Clouds
1:00 AM 82.4 °F 92.4 °F 78.8 °F 89% 29.92 in 6.2 mi ESE 6.9 mph - N/A   Scattered Clouds
2:00 AM 83 °F - 78 °F 79% 29.91 in 12 mi ESE 9.2 mph - -   Widespread Dust
2:00 AM 82.4 °F 90.9 °F 77.0 °F 84% 29.92 in 6.2 mi ESE 9.2 mph - N/A   Scattered Clouds
3:00 AM 82.4 °F 90.9 °F 77.0 °F 84% 29.89 in 6.2 mi ESE 6.9 mph - N/A   Scattered Clouds
4:00 AM 82.4 °F 90.9 °F 77.0 °F 84% 29.89 in 6.2 mi ESE 9.2 mph - N/A   Scattered Clouds
5:00 AM 82 °F - 78 °F 83% 29.92 in 12 mi SE 9.2 mph - -   Widespread Dust
5:00 AM 82.4 °F 90.9 °F 77.0 °F 84% 29.92 in 6.2 mi SE 9.2 mph - N/A   Partly Cloudy
6:00 AM 82.4 °F 92.4 °F 78.8 °F 89% 29.92 in 6.2 mi East 9.2 mph - N/A   Scattered Clouds
8:00 AM 86 °F - 78 °F 72% 29.97 in 14 mi SE 12.7 mph - -   Widespread Dust
8:00 AM 86.0 °F 99.3 °F 78.8 °F 79% 29.95 in 6.2 mi SE 12.7 mph - N/A   Mostly Cloudy
9:00 AM 87.8 °F 102.5 °F 78.8 °F 75% 29.98 in 6.2 mi SE 15.0 mph - N/A   Partly Cloudy
10:00 AM 87.8 °F 102.5 °F 78.8 °F 75% 29.98 in 6.2 mi SE 15.0 mph - N/A   Partly Cloudy
11:00 AM 87 °F - 80 °F 73% 29.98 in 16 mi ESE 17.3 mph - -   Scattered Clouds
11:00 AM 87.8 °F 102.5 °F 78.8 °F 75% 29.98 in 6.2 mi ESE 17.3 mph - N/A   Partly Cloudy
12:00 PM 87.8 °F 102.5 °F 78.8 °F 75% 29.95 in 6.2 mi SE 16.1 mph - N/A   Mostly Cloudy
1:00 PM 87.8 °F 104.9 °F 80.6 °F 79% 29.92 in 6.2 mi SE 15.0 mph - N/A   Mostly Cloudy
2:00 PM 87 °F - 79 °F 72% 29.91 in 12 mi SE 16.1 mph - -   Widespread Dust
2:00 PM 87.8 °F 102.5 °F 78.8 °F 75% 29.89 in 6.2 mi SE 16.1 mph - N/A   Scattered Clouds
3:00 PM 87.8 °F 102.5 °F 78.8 °F 75% 29.89 in 6.2 mi SE 15.0 mph - N/A   Mostly Cloudy
4:00 PM 86.0 °F 99.3 °F 78.8 °F 79% 29.89 in 6.2 mi ESE 15.0 mph - N/A   Mostly Cloudy
5:00 PM 86 °F - 79 °F 74% 29.90 in 14 mi ESE 17.3 mph - -   Widespread Dust
5:00 PM 86.0 °F 99.3 °F 78.8 °F 79% 29.89 in 6.2 mi ESE 17.3 mph - N/A   Mostly Cloudy
6:00 PM 84.2 °F 96.1 °F 78.8 °F 84% 29.89 in 6.2 mi SE 17.3 mph - N/A   Mostly Cloudy
7:00 PM 84.2 °F 96.1 °F 78.8 °F 84% 29.92 in 6.2 mi ESE 16.1 mph - N/A   Mostly Cloudy
8:00 PM 84 °F - 78 °F 78% 29.95 in 14 mi ESE 16.1 mph - -   Widespread Dust
8:00 PM 84.2 °F 96.1 °F 78.8 °F 84% 29.95 in 6.2 mi ESE 16.1 mph - N/A   Mostly Cloudy
9:00 PM 84.2 °F 96.1 °F 78.8 °F 84% 29.95 in 6.2 mi ESE 17.3 mph - N/A   Mostly Cloudy
10:00 PM 84.2 °F 96.1 °F 78.8 °F 84% 29.95 in 6.2 mi SE 15.0 mph - N/A   Mostly Cloudy
11:00 PM 84 °F - 78 °F 78% 29.97 in 14 mi ESE 15.0 mph - -   Widespread Dust
11:00 PM 84.2 °F 96.1 °F 78.8 °F 84% 29.95 in 6.2 mi ESE 15.0 mph - N/A   Scattered Clouds